Αρχική σελίδα
METAR-TAF:

METAR-TAF

Αεροδρόμια :

Smith Field

Siloam Springs, Αρκάνσας, Ηνωμένες Πολιτείες Αμερικής

γεωγραφικό πλάτος: 36-12N, γεωγραφικό μήκος: 094-29W, υψόμετρο: 300 μ

Παρών καιρός

Η αναφορά έγινε 21 λεπτά πριν, στις 15:56 UTC
Άνεμος 6 kt από Α
Θερμοκρασία 12°C
Υγρασία 32%
Πίεση 1029 hPa
Ορατότητα: 16.1 χλμ
Καθαρός ουρανός

METAR: KSLG 181556Z AUTO 09006KT 10SM CLR 12/M04 A3040 RMK AO2 SLP294 T01221044

Χρόνος: 11:17 (16:17 UTC)


TAF: λείπει

Μετεωρολογικές αναφορές και προγνώσεις για περισσότερα από 4000 αεροδρόμια (δελτία METAR και TAF).

Οι διαθέσιμοι σταθμοί απεικονίζονται στο χάρτη με κίτρινες και κόκκινες κουκκίδες.

Μετακινήστε το ποντίκι πάνω από τις κουκκίδες για να δείτε το όνομα του σταθμού.

Στη συνέχεια, κάντε κλικ για να δείτε τις μετεωρολογικές αναφορές και τις προγνώσεις καιρού.

Για να αλλάξετε το χάρτη: κάντε κλικ στα πράσινα κουμπιά με τον μαύρο σταυρό για να ζουμάρετε, στο πράσινο κουμπί με την παύλα για να αφαιρέσετε το ζουμ ή στα πράσινα βέλη για να αντιπαραβάλλετε χάρτες.


METAR-TAF: